FW8134 Weather Reports


Display with metric or nautical units.
time (UTC)temp
F
wind
direction
speed
MPH
gust
MPH
rain 1hr
in
rain 24hr
in
rain mn
in
humidity
%
barometer
mb
20260507101518 58 28 3.0 7.0 0.00 0.00 0.00 67 997.2
20260507100519 57 58 3.0 6.0 0.00 0.00 0.00 66 997.3
20260507095520 57 30 4.0 8.0 0.00 0.00 0.00 67 997.3
20260507094516 56 74 2.0 7.0 0.00 0.00 0.00 68 997.3
20260507093517 57 53 4.0 9.0 0.00 0.00 0.00 69 997.3
20260507092518 57 32 5.0 10.0 0.00 0.00 0.00 70 997.2
20260507091539 57 11 3.0 6.0 0.00 0.00 0.00 72 997.2
20260507090520 56 55 3.0 6.0 0.00 0.00 0.00 73 997.2
20260507085516 56 45 2.0 7.0 0.00 0.00 0.00 74 997.1
20260507084517 55 47 2.0 4.0 0.00 0.00 0.00 74 997.1
20260507083518 55 255 2.0 5.0 0.00 0.00 0.00 75 997.1
20260507082519 54 45 2.0 5.0 0.00 0.00 0.00 77 997.1
20260507081520 54 70 1.0 4.0 0.00 0.00 0.00 79 997.1
20260507080517 54 327 1.0 3.0 0.00 0.01 0.00 83 997.0
20260507075518 53 0.0 0.0 0.00 0.01 0.00 84 997.1
20260507074519 52 0.0 0.0 0.00 0.01 0.00 85 997.0
20260507073520 52 29 1.0 4.0 0.00 0.01 0.00 87 997.0
20260507072517 51 31 1.0 3.0 0.00 0.01 0.00 89 996.9
20260507071518 50 45 0.0 3.0 0.00 0.01 0.00 89 996.9
20260507070519 50 20 0.0 2.0 0.00 0.01 0.00 91 996.8
20260507065540 49 5 0.0 3.0 0.00 0.01 0.00 93 996.8
20260507064516 49 0.0 0.0 0.00 0.01 0.00 94 996.8
20260507063517 49 0.0 0.0 0.00 0.01 0.00 94 996.7
20260507062519 48 35 0.0 2.0 0.00 0.01 0.00 95 996.6
20260507061520 48 0.0 0.0 0.00 0.01 0.00 95 996.6
20260507060516 48 53 1.0 3.0 0.00 0.01 0.00 96 996.6
20260507055517 47 49 1.0 3.0 0.00 0.01 0.00 96 996.5
20260507054518 47 10 0.0 2.0 0.00 0.01 0.00 96 996.4
20260507053519 47 12 0.0 2.0 0.00 0.01 0.00 96 996.3
20260507052516 47 59 1.0 2.0 0.00 0.01 0.00 97 996.3
20260507051517 46 56 0.0 1.0 0.00 0.01 0.00 97 996.3
20260507050518 46 49 0.0 2.0 0.00 0.01 0.00 97 996.2
20260507045619 46 0.0 0.0 0.00 0.01 0.00 96 996.2
20260507044521 45 0.0 0.0 0.00 0.02 0.00 96 996.1
20260507043516 45 0.0 0.0 0.00 0.02 0.00 96 996.0
20260507042517 45 0.0 0.0 0.00 0.02 0.00 96 995.9
20260507041519 45 0.0 0.0 0.00 0.02 0.00 96 995.8
20260507040540 45 0.0 0.0 0.00 0.03 0.00 96 995.8
20260507035516 45 0.0 0.0 0.00 0.03 0.00 96 995.8
20260507034537 45 0.0 0.0 0.00 0.03 0.00 95 995.8
20260507033539 46 0.0 0.0 0.00 0.03 0.00 95 995.7
20260507032520 46 0.0 0.0 0.00 0.04 0.00 95 995.7
20260507031516 46 0.0 0.0 0.00 0.05 0.00 95 995.7
20260507030537 46 0.0 0.0 0.00 0.06 0.00 95 995.8
20260507025518 46 0.0 0.0 0.00 0.06 0.00 95 995.8
20260507024559 46 0.0 0.0 0.00 0.07 0.00 95 995.8
20260507023515 46 0.0 0.0 0.00 0.08 0.00 95 995.8
20260507022517 46 240 0.0 1.0 0.00 0.08 0.00 96 995.7
20260507021518 46 0.0 0.0 0.00 0.09 0.00 96 995.6
20260507020519 46 251 0.0 2.0 0.00 0.09 0.00 96 995.6
20260507015520 46 0.0 0.0 0.00 0.09 0.00 96 995.5
20260507014526 46 0.0 0.0 0.00 0.09 0.00 96 995.5
20260507013522 45 0.0 0.0 0.00 0.10 0.00 96 995.4
20260507012523 45 0.0 1.0 0.00 0.10 0.00 96 995.5
20260507011525 45 211 0.0 1.0 0.00 0.10 0.00 96 995.5
20260507010526 45 208 1.0 2.0 0.00 0.11 0.00 96 995.5
20260507005522 45 0.0 0.0 0.00 0.11 0.00 96 995.4
20260507004523 45 0.0 0.0 0.00 0.12 0.00 96 995.4
20260507003525 45 0.0 0.0 0.00 0.13 0.00 96 995.4
20260507002526 45 0.0 0.0 0.00 0.15 0.00 97 995.4
20260507001542 45 0.0 0.0 0.00 0.16 0.00 97 995.4
20260507000523 44 0.0 0.0 0.00 0.16 0.00 97 995.4
20260506235524 44 0.0 0.0 0.00 0.17 0.00 96 995.4
20260506234526 43 0.0 0.0 0.00 0.17 0.00 97 995.5
20260506233522 42 0.0 0.0 0.00 0.17 0.00 96 995.5
20260506232523 42 0.0 0.0 0.00 0.17 0.00 96 995.4
20260506231524 42 0.0 0.0 0.00 0.17 0.00 95 995.4
20260506230526 42 0.0 0.0 0.00 0.18 0.00 95 995.4
20260506225602 42 0.0 0.0 0.00 0.18 0.00 95 995.4
20260506224518 42 0.0 0.0 0.00 0.18 0.00 95 995.4
20260506223519 43 0.0 0.0 0.00 0.18 0.00 95 995.3
20260506222515 43 0.0 0.0 0.00 0.19 0.00 94 995.3
20260506221516 43 0.0 0.0 0.00 0.19 0.00 94 995.3
20260506220517 43 0.0 0.0 0.00 0.19 0.00 93 995.2
20260506215519 43 0.0 0.0 0.00 0.19 0.19 93 995.2
20260506214520 44 0.0 0.0 0.00 0.20 0.19 93 995.1
20260506213516 44 0.0 0.0 0.00 0.20 0.19 93 995.1
20260506212517 44 0.0 0.0 0.00 0.21 0.19 92 995.1
20260506211538 45 0.0 0.0 0.00 0.24 0.19 91 995.1
20260506210519 45 0.0 0.0 0.00 0.24 0.19 91 995.1
20260506205521 46 0.0 0.0 0.00 0.26 0.19 90 995.0
20260506204516 46 0.0 0.0 0.00 0.28 0.19 89 994.9
20260506203538 47 0.0 0.0 0.00 0.31 0.19 88 994.9
20260506202539 48 0.0 0.0 0.00 0.35 0.19 88 994.8
20260506201520 48 280 0.0 2.0 0.00 0.39 0.19 89 994.8
20260506200536 48 0.0 2.0 0.00 0.43 0.19 89 994.6
20260506195517 48 0.0 0.0 0.00 0.46 0.19 89 994.5
20260506194518 49 0.0 0.0 0.00 0.47 0.19 88 994.3
20260506193520 49 217 0.0 1.0 0.00 0.47 0.19 87 994.2
20260506192516 49 0.0 0.0 0.00 0.48 0.19 85 994.0
20260506191517 50 0.0 0.0 0.00 0.48 0.19 84 993.9
20260506190518 50 0.0 0.0 0.00 0.50 0.19 83 993.8
20260506185519 51 277 0.0 0.0 0.00 0.50 0.19 82 993.8
20260506184520 51 257 0.0 1.0 0.00 0.52 0.19 82 993.7
20260506183516 52 320 0.0 2.0 0.00 0.54 0.19 81 993.6
20260506182518 52 16 0.0 2.0 0.00 0.55 0.19 80 993.5
20260506181519 53 283 0.0 2.0 0.00 0.56 0.19 78 993.4
20260506180515 53 291 0.0 4.0 0.00 0.57 0.19 77 993.3
20260506175516 54 41 1.0 3.0 0.00 0.57 0.19 76 993.2
20260506174517 54 29 3.0 8.0 0.00 0.59 0.19 75 993.1
20260506173558 55 14 5.0 12.0 0.00 0.60 0.19 75 993.0
20260506172559 55 41 4.0 9.0 0.00 0.61 0.19 76 992.8
20260506171515 55 13 4.0 10.0 0.00 0.64 0.19 75 992.8
20260506170516 55 16 4.0 9.0 0.00 0.66 0.19 75 992.7
20260506165517 55 34 3.0 9.0 0.00 0.68 0.19 76 992.7
20260506164518 54 33 3.0 8.0 0.00 0.69 0.19 77 992.7
20260506163519 55 12 2.0 8.0 0.00 0.71 0.19 76 992.7
20260506162535 55 338 2.0 6.0 0.00 0.72 0.19 75 992.7
20260506161516 55 20 2.0 7.0 0.00 0.73 0.19 73 992.6
20260506160517 55 39 4.0 8.0 0.00 0.74 0.19 72 992.6
20260506155519 56 22 3.0 8.0 0.00 0.74 0.19 71 992.6
20260506154535 56 27 3.0 11.0 0.00 0.75 0.19 72 992.5
20260506153516 56 41 4.0 7.0 0.00 0.76 0.19 73 992.5
20260506152517 55 6 3.0 10.0 0.00 0.78 0.19 73 992.6
20260506151517 54 36 3.0 9.0 0.00 0.80 0.19 75 992.7
20260506150519 54 37 1.0 4.0 0.00 0.82 0.19 76 992.7
20260506145514 54 24 4.0 10.0 0.00 0.85 0.19 76 992.7
20260506144516 54 8 2.0 7.0 0.00 0.87 0.19 77 992.6
20260506143517 54 44 4.0 9.0 0.00 0.87 0.19 76 992.6
20260506142518 55 42 4.0 9.0 0.00 0.89 0.19 75 992.5
20260506141519 55 37 3.0 7.0 0.00 0.91 0.19 74 992.4
20260506140520 56 30 4.0 7.0 0.00 0.92 0.19 73 992.3
20260506135516 57 2 3.0 6.0 0.00 0.94 0.19 71 992.2
20260506134517 57 43 2.0 6.0 0.00 0.95 0.19 70 992.2
20260506133517 58 45 5.0 12.0 0.00 0.96 0.19 69 992.2
20260506132539 57 32 4.0 9.0 0.00 0.98 0.19 72 992.3
20260506131519 57 327 2.0 5.0 0.00 0.99 0.19 73 992.3
20260506130536 57 43 5.0 12.0 0.00 1.01 0.19 72 992.2
20260506125517 57 46 5.0 12.0 0.00 1.02 0.19 72 992.2
20260506124518 57 48 5.0 12.0 0.00 1.02 0.19 73 992.1
20260506123519 57 2 4.0 8.0 0.00 1.02 0.19 73 992.1
20260506122520 57 247 2.0 6.0 0.00 1.02 0.19 74 992.1
20260506121516 56 23 3.0 8.0 0.00 1.03 0.19 74 992.1
20260506120517 56 20 5.0 16.0 0.00 1.03 0.19 74 992.1
20260506115518 56 17 4.0 10.0 0.00 1.03 0.19 76 992.1
20260506114519 55 2 3.0 8.0 0.00 1.03 0.19 78 992.2
20260506113520 55 356 4.0 10.0 0.00 1.03 0.19 79 992.2
20260506112516 54 39 5.0 13.0 0.00 1.03 0.19 80 992.3
20260506111517 54 0 4.0 11.0 0.00 1.03 0.19 80 992.3
20260506110518 54 314 3.0 7.0 0.00 1.03 0.19 83 992.3
20260506105539 54 325 3.0 6.0 0.00 1.03 0.19 85 992.3
20260506104520 53 345 3.0 10.0 0.00 1.03 0.19 86 992.3
20260506103556 53 39 3.0 14.0 0.00 1.03 0.19 86 992.3
20260506102537 52 30 4.0 8.0 0.00 1.03 0.19 88 992.4